Location: Góry Miechowskie
(50.3599°N, 20.1803°E)
Time: 15:27:01
(UTC+00:00)

Vanguard 1 Rocket - Pass Details

Date: 20 September 2024
Orbit: 650 x 4218 km, 34.3° (Epoch: 07 October)

Event Time Altitude Azimuth Distance (km) Brightness Sun altitude
Rises 23:48:15 0° 198° (SSW) 4,648 - -36.2°
Reaches altitude 10° 23:51:42 10° 184° (S) 4,114 - -36.0°
Exits shadow 23:58:52 23° 144° (SE) 3,999 10.4 -35.5°
Maximum altitude 00:00:19 24° 136° (SE) 4,133 10.5 -35.4°
Drops below altitude 10° 00:13:20 10° 93° (E) 6,445 12.0 -34.4°
Sets 00:20:49 0° 83° (E) 7,984 12.7 -33.7°
